User: anonymous   Login
Location: *
(13.2257°S, 48.7193°W)
Time: 20:03:05
(UTC+00:00)
Language:

H-2A R/B - Orbit

View from above orbital plane
View from above orbital plane
View from above satellite
View from above satellite

Ground track
Ground track

The orbit is defined by the following mean orbital elements,

1 39771U          26105.56305193 +.00000000 +00000-0 +16220-3 0 00000
2 39771  98.1976  96.9788 0008979  12.2581 347.8865 15.14000952    06
Epoch (UTC): 15 April 2026 13:30:47
Eccentricity: 0.0008979
inclination: 98.1976°
perigee height: 518 km
apogee height: 530 km
right ascension of ascending node: 96.9788°
argument of perigee: 12.2581°
revolutions per day: 15.14000952
mean anomaly at epoch: 347.8865°

The dashed part of the orbit path shows where the satellite is in the earth's shadow,  

DLR